Time,TemperatureF,DewpointF,PressureIn,WindDirection,WindDirectionDegrees,WindSpeedMPH,WindSpeedGustMPH,Humidity,HourlyPrecipIn,Conditions,Clouds,dailyrainin,SoftwareType,DateUTC
2013-08-08 00:01:00,65.3,64.8,30.05,SW,232,0.0,0.0,98,0.00,,,0.00,meteohub,2013-08-08 04:01:00,
2013-08-08 00:06:00,65.3,64.8,30.05,SW,232,0.0,0.0,98,0.00,,,0.00,meteohub,2013-08-08 04:06:00,
2013-08-08 00:12:00,65.3,64.8,30.05,SW,231,0.0,0.0,98,0.00,,,0.00,meteohub,2013-08-08 04:12:00,
2013-08-08 00:17:00,65.1,64.6,30.05,SW,232,0.0,0.0,98,0.00,,,0.00,meteohub,2013-08-08 04:17:00,
2013-08-08 00:22:00,65.1,64.6,30.05,SW,232,0.0,0.0,98,0.00,,,0.00,meteohub,2013-08-08 04:22:00,
2013-08-08 00:27:00,64.9,64.4,30.04,SW,232,0.0,0.0,98,0.00,,,0.00,meteohub,2013-08-08 04:27:00,
2013-08-08 00:32:00,64.9,64.4,30.04,SW,232,0.0,0.0,98,0.00,,,0.00,meteohub,2013-08-08 04:32:00,
2013-08-08 00:37:00,64.9,64.4,30.05,SW,231,0.0,0.0,98,0.00,,,0.00,meteohub,2013-08-08 04:37:00,
2013-08-08 00:42:00,64.9,64.4,30.04,SW,232,0.0,0.0,98,0.00,,,0.00,meteohub,2013-08-08 04:42:00,
2013-08-08 00:47:00,64.9,64.4,30.05,SW,231,0.0,0.0,98,0.00,,,0.00,meteohub,2013-08-08 04:47:00,
2013-08-08 00:52:00,64.9,64.4,30.05,SW,231,0.0,0.0,98,0.00,,,0.00,meteohub,2013-08-08 04:52:00,
2013-08-08 00:57:00,64.9,64.4,30.04,SW,231,0.0,0.0,98,0.00,,,0.00,meteohub,2013-08-08 04:57:00,
2013-08-08 01:02:00,64.8,64.2,30.05,SW,231,0.0,0.0,98,0.00,,,0.00,meteohub,2013-08-08 05:02:00,
2013-08-08 01:07:00,64.8,64.2,30.05,SW,232,0.0,0.0,98,0.00,,,0.00,meteohub,2013-08-08 05:07:00,
2013-08-08 01:12:00,64.9,64.4,30.04,SW,232,0.0,0.0,98,0.00,,,0.00,meteohub,2013-08-08 05:12:00,
2013-08-08 01:17:00,64.8,64.2,30.04,SW,232,0.0,0.0,98,0.00,,,0.00,meteohub,2013-08-08 05:17:00,
2013-08-08 01:22:00,64.8,64.2,30.04,SW,232,0.0,0.0,98,0.00,,,0.00,meteohub,2013-08-08 05:22:00,
2013-08-08 01:27:00,64.8,64.2,30.04,SW,232,0.0,0.0,98,0.00,,,0.00,meteohub,2013-08-08 05:27:00,
2013-08-08 01:32:00,64.8,64.2,30.04,SW,232,0.0,0.0,98,0.00,,,0.00,meteohub,2013-08-08 05:32:00,
2013-08-08 01:37:00,64.8,64.2,30.04,SW,231,0.0,0.0,98,0.00,,,0.00,meteohub,2013-08-08 05:37:00,
2013-08-08 01:42:00,64.8,64.2,30.04,SW,232,0.0,0.0,98,0.00,,,0.00,meteohub,2013-08-08 05:42:00,
2013-08-08 01:47:00,64.9,64.4,30.04,SW,231,0.0,0.0,98,0.00,,,0.00,meteohub,2013-08-08 05:47:00,
2013-08-08 01:52:00,64.9,64.4,30.04,SW,232,0.0,0.0,98,0.00,,,0.00,meteohub,2013-08-08 05:52:00,
2013-08-08 01:57:00,64.9,64.4,30.04,SW,232,0.0,0.0,98,0.00,,,0.00,meteohub,2013-08-08 05:57:00,
2013-08-08 02:02:00,65.1,64.6,30.04,SW,232,0.0,0.0,98,0.00,,,0.00,meteohub,2013-08-08 06:02:00,
2013-08-08 02:07:00,65.1,64.6,30.04,SW,232,0.0,0.0,98,0.00,,,0.00,meteohub,2013-08-08 06:07:00,
2013-08-08 02:12:00,65.1,64.6,30.03,SW,232,0.0,0.0,98,0.00,,,0.00,meteohub,2013-08-08 06:12:00,
2013-08-08 02:17:00,65.1,64.6,30.03,SW,232,0.0,0.0,98,0.00,,,0.00,meteohub,2013-08-08 06:17:00,
2013-08-08 02:22:00,65.3,64.8,30.03,SW,232,0.0,0.0,98,0.00,,,0.00,meteohub,2013-08-08 06:22:00,
2013-08-08 02:27:00,65.1,64.6,30.04,SW,232,0.0,0.0,98,0.00,,,0.00,meteohub,2013-08-08 06:27:00,
2013-08-08 02:32:00,65.1,64.6,30.03,SW,232,0.0,0.0,98,0.00,,,0.00,meteohub,2013-08-08 06:32:00,
2013-08-08 02:37:00,65.1,64.6,30.03,SW,231,0.0,0.0,98,0.00,,,0.00,meteohub,2013-08-08 06:37:00,
2013-08-08 02:42:00,65.3,64.8,30.03,SW,232,0.0,0.0,98,0.00,,,0.00,meteohub,2013-08-08 06:42:00,
2013-08-08 02:47:00,65.5,64.9,30.03,SW,232,0.0,0.0,98,0.00,,,0.00,meteohub,2013-08-08 06:47:00,
2013-08-08 02:52:00,65.5,64.9,30.03,SW,232,0.0,0.0,98,0.00,,,0.00,meteohub,2013-08-08 06:52:00,
2013-08-08 02:57:00,65.7,65.1,30.03,SSW,207,0.0,1.0,98,0.00,,,0.00,meteohub,2013-08-08 06:57:00,
2013-08-08 03:02:00,65.8,65.3,30.03,SSW,207,0.0,1.0,98,0.00,,,0.00,meteohub,2013-08-08 07:02:00,
2013-08-08 03:07:00,65.8,65.3,30.03,SSW,205,0.0,1.0,98,0.00,,,0.00,meteohub,2013-08-08 07:07:00,
2013-08-08 03:12:00,65.8,65.3,30.03,SW,221,0.0,0.0,98,0.00,,,0.00,meteohub,2013-08-08 07:12:00,
2013-08-08 03:17:00,65.8,65.3,30.02,SW,221,0.0,1.0,98,0.00,,,0.00,meteohub,2013-08-08 07:17:00,
2013-08-08 03:22:00,65.8,65.3,30.02,SW,221,0.0,1.0,98,0.00,,,0.00,meteohub,2013-08-08 07:22:00,
2013-08-08 03:27:00,65.8,65.3,30.02,SW,221,0.0,0.0,98,0.00,,,0.00,meteohub,2013-08-08 07:27:00,
2013-08-08 03:32:00,65.8,65.3,30.03,SW,222,0.0,0.0,98,0.00,,,0.00,meteohub,2013-08-08 07:32:00,
2013-08-08 03:37:00,65.8,65.3,30.02,SW,221,0.0,0.0,98,0.00,,,0.00,meteohub,2013-08-08 07:37:00,
2013-08-08 03:42:00,65.8,65.3,30.03,SW,221,0.0,1.0,98,0.00,,,0.00,meteohub,2013-08-08 07:42:00,
2013-08-08 03:47:00,65.8,65.3,30.03,SW,221,0.0,1.0,98,0.00,,,0.00,meteohub,2013-08-08 07:47:00,
2013-08-08 03:52:00,65.8,65.3,30.03,SW,220,0.0,1.0,98,0.00,,,0.00,meteohub,2013-08-08 07:52:00,
2013-08-08 03:57:00,66.0,65.5,30.03,SW,221,0.0,1.0,98,0.00,,,0.00,meteohub,2013-08-08 07:57:00,
2013-08-08 04:02:00,66.0,65.5,30.03,SW,221,0.0,0.0,98,0.00,,,0.00,meteohub,2013-08-08 08:02:00,
2013-08-08 04:07:00,66.0,65.5,30.03,SW,221,0.0,0.0,98,0.00,,,0.00,meteohub,2013-08-08 08:07:00,
2013-08-08 04:12:00,66.0,65.5,30.02,SW,221,0.0,0.0,98,0.00,,,0.00,meteohub,2013-08-08 08:12:00,
2013-08-08 04:17:00,66.0,65.5,30.02,SW,220,0.0,0.0,98,0.00,,,0.00,meteohub,2013-08-08 08:17:00,
2013-08-08 04:22:00,65.8,65.3,30.02,SW,221,0.0,0.0,98,0.00,,,0.00,meteohub,2013-08-08 08:22:00,
2013-08-08 04:27:00,65.8,65.3,30.02,SW,222,0.0,0.0,98,0.00,,,0.00,meteohub,2013-08-08 08:27:00,
2013-08-08 04:32:00,65.8,65.3,30.02,SW,221,0.0,0.0,98,0.00,,,0.00,meteohub,2013-08-08 08:32:00,
2013-08-08 04:37:00,65.8,65.3,30.02,SW,222,0.0,0.0,98,0.00,,,0.00,meteohub,2013-08-08 08:37:00,
2013-08-08 04:42:00,65.8,65.3,30.02,SW,222,0.0,0.0,98,0.00,,,0.00,meteohub,2013-08-08 08:42:00,
2013-08-08 04:47:00,65.8,65.3,30.03,SW,222,0.0,0.0,98,0.00,,,0.00,meteohub,2013-08-08 08:47:00,
2013-08-08 04:53:00,65.8,65.3,30.03,SW,220,0.0,0.0,98,0.00,,,0.00,meteohub,2013-08-08 08:53:00,
2013-08-08 04:58:00,65.8,65.3,30.03,SW,221,0.0,0.0,98,0.00,,,0.00,meteohub,2013-08-08 08:58:00,
2013-08-08 05:03:00,65.8,65.3,30.03,SW,222,0.0,0.0,98,0.00,,,0.00,meteohub,2013-08-08 09:03:00,
2013-08-08 05:08:00,65.8,65.3,30.02,SW,221,0.0,0.0,98,0.00,,,0.00,meteohub,2013-08-08 09:08:00,
2013-08-08 05:13:00,65.8,65.3,30.02,SW,222,0.0,0.0,98,0.00,,,0.00,meteohub,2013-08-08 09:13:00,
2013-08-08 05:18:00,65.8,65.3,30.02,SW,220,0.0,0.0,98,0.00,,,0.00,meteohub,2013-08-08 09:18:00,
2013-08-08 05:23:00,65.8,65.3,30.02,SW,222,0.0,0.0,98,0.00,,,0.00,meteohub,2013-08-08 09:23:00,
2013-08-08 05:28:00,65.8,65.3,30.02,SW,220,0.0,0.0,98,0.00,,,0.00,meteohub,2013-08-08 09:28:00,
2013-08-08 05:33:00,65.8,65.3,30.02,SW,222,0.0,0.0,98,0.00,,,0.00,meteohub,2013-08-08 09:33:00,
2013-08-08 05:38:00,65.8,65.3,30.02,SW,222,0.0,0.0,98,0.00,,,0.00,meteohub,2013-08-08 09:38:00,
2013-08-08 05:43:00,65.8,65.3,30.02,SW,222,0.0,0.0,98,0.00,,,0.00,meteohub,2013-08-08 09:43:00,
2013-08-08 05:48:00,66.0,65.5,30.02,SW,221,0.0,0.0,98,0.00,,,0.00,meteohub,2013-08-08 09:48:00,
2013-08-08 05:53:00,66.0,65.5,30.02,SW,221,0.0,0.0,98,0.00,,,0.00,meteohub,2013-08-08 09:53:00,
2013-08-08 05:58:00,66.0,65.5,30.02,SW,222,0.0,0.0,98,0.00,,,0.00,meteohub,2013-08-08 09:58:00,
2013-08-08 06:03:00,66.0,65.5,30.02,SW,221,0.0,0.0,98,0.00,,,0.00,meteohub,2013-08-08 10:03:00,
2013-08-08 06:08:00,66.2,65.7,30.02,SW,221,0.0,0.0,98,0.00,,,0.00,meteohub,2013-08-08 10:08:00,
2013-08-08 06:13:00,66.2,65.7,30.02,SW,221,0.0,0.0,98,0.00,,,0.00,meteohub,2013-08-08 10:13:00,
2013-08-08 06:18:00,66.0,65.5,30.02,SW,220,0.0,0.0,98,0.00,,,0.00,meteohub,2013-08-08 10:18:00,
2013-08-08 06:23:00,66.0,65.5,30.02,SW,222,0.0,0.0,98,0.00,,,0.00,meteohub,2013-08-08 10:23:00,
2013-08-08 06:28:00,66.2,65.7,30.02,SW,221,0.0,0.0,98,0.00,,,0.00,meteohub,2013-08-08 10:28:00,
2013-08-08 06:33:00,66.2,65.7,30.02,SW,222,0.0,0.0,98,0.00,,,0.00,meteohub,2013-08-08 10:33:00,
2013-08-08 06:38:00,66.2,65.7,30.02,SW,222,0.0,1.0,98,0.00,,,0.00,meteohub,2013-08-08 10:38:00,
2013-08-08 06:43:00,66.2,65.7,30.02,SW,221,0.0,1.0,98,0.00,,,0.00,meteohub,2013-08-08 10:43:00,
2013-08-08 06:48:00,66.4,65.8,30.02,NW,304,0.0,0.0,98,0.00,,,0.00,meteohub,2013-08-08 10:48:00,
2013-08-08 06:53:00,66.4,65.8,30.02,NW,304,0.0,0.0,98,0.00,,,0.00,meteohub,2013-08-08 10:53:00,
2013-08-08 06:58:00,66.4,65.8,30.02,West,274,0.0,0.0,98,0.00,,,0.00,meteohub,2013-08-08 10:58:00,
2013-08-08 07:03:00,66.4,65.8,30.02,SSW,197,0.0,0.0,98,0.00,,,0.00,meteohub,2013-08-08 11:03:00,
2013-08-08 07:08:00,66.4,65.8,30.03,SSW,210,0.0,1.0,98,0.00,,,0.00,meteohub,2013-08-08 11:08:00,
2013-08-08 07:13:00,66.4,65.8,30.03,SSW,210,0.0,1.0,98,0.00,,,0.00,meteohub,2013-08-08 11:13:00,
2013-08-08 07:18:00,66.4,65.8,30.03,SSW,210,0.0,1.0,98,0.00,,,0.00,meteohub,2013-08-08 11:18:00,
2013-08-08 07:23:00,66.6,66.0,30.03,West,259,0.0,1.0,98,0.00,,,0.00,meteohub,2013-08-08 11:23:00,
2013-08-08 07:29:00,66.6,66.0,30.03,SSW,205,1.0,1.0,98,0.00,,,0.00,meteohub,2013-08-08 11:29:00,
2013-08-08 07:33:00,66.7,66.2,30.04,SSW,208,0.0,3.0,98,0.00,,,0.00,meteohub,2013-08-08 11:33:00,
2013-08-08 07:38:00,66.7,66.2,30.04,SSW,200,0.0,3.0,98,0.00,,,0.00,meteohub,2013-08-08 11:38:00,
2013-08-08 07:43:00,66.9,66.4,30.04,SSW,205,0.0,2.0,98,0.00,,,0.00,meteohub,2013-08-08 11:43:00,
2013-08-08 07:49:00,66.9,66.4,30.04,SW,231,0.0,2.0,98,0.00,,,0.00,meteohub,2013-08-08 11:49:00,
2013-08-08 07:54:00,66.9,66.4,30.04,SSW,212,0.0,2.0,98,0.00,,,0.00,meteohub,2013-08-08 11:54:00,
2013-08-08 07:59:00,66.9,66.4,30.04,SSE,164,0.0,2.0,98,0.00,,,0.00,meteohub,2013-08-08 11:59:00,
2013-08-08 08:04:00,67.1,66.6,30.04,NW,306,0.0,3.0,98,0.00,,,0.00,meteohub,2013-08-08 12:04:00,
2013-08-08 08:09:00,67.3,66.7,30.04,WNW,290,0.0,3.0,98,0.00,,,0.00,meteohub,2013-08-08 12:09:00,
2013-08-08 08:14:00,67.3,66.7,30.05,South,188,0.0,3.0,98,0.00,,,0.00,meteohub,2013-08-08 12:14:00,
2013-08-08 08:19:00,67.3,66.7,30.05,WSW,246,0.0,6.0,98,0.00,,,0.00,meteohub,2013-08-08 12:19:00,
2013-08-08 08:24:00,67.3,66.7,30.05,WSW,254,0.0,6.0,98,0.00,,,0.00,meteohub,2013-08-08 12:24:00,
2013-08-08 08:29:00,67.3,66.7,30.05,SSE,148,0.0,6.0,98,0.00,,,0.00,meteohub,2013-08-08 12:29:00,
2013-08-08 08:34:00,67.1,66.6,30.05,SW,235,0.0,5.0,98,0.00,,,0.00,meteohub,2013-08-08 12:34:00,
2013-08-08 08:39:00,67.1,66.6,30.05,West,271,0.0,5.0,98,0.00,,,0.00,meteohub,2013-08-08 12:39:00,
2013-08-08 08:44:00,67.1,66.6,30.05,SW,215,0.0,4.0,98,0.00,,,0.00,meteohub,2013-08-08 12:44:00,
2013-08-08 08:49:00,67.1,66.6,30.05,South,189,0.0,4.0,98,0.00,,,0.00,meteohub,2013-08-08 12:49:00,
2013-08-08 08:54:00,66.9,66.4,30.05,West,276,0.0,3.0,98,0.00,,,0.00,meteohub,2013-08-08 12:54:00,
2013-08-08 08:59:00,67.1,66.6,30.05,WNW,287,0.0,3.0,98,0.00,,,0.00,meteohub,2013-08-08 12:59:00,
2013-08-08 09:04:00,67.1,66.6,30.05,West,263,0.0,3.0,98,0.00,,,0.00,meteohub,2013-08-08 13:04:00,
2013-08-08 09:09:00,67.1,66.6,30.05,WSW,246,0.0,3.0,98,0.00,,,0.00,meteohub,2013-08-08 13:09:00,
2013-08-08 09:14:00,67.3,66.7,30.05,WSW,249,0.0,1.0,98,0.00,,,0.00,meteohub,2013-08-08 13:14:00,
2013-08-08 09:19:00,67.3,66.4,30.05,West,264,1.0,1.0,97,0.00,,,0.00,meteohub,2013-08-08 13:19:00,
2013-08-08 09:24:00,67.3,66.7,30.05,West,265,0.0,1.0,98,0.00,,,0.00,meteohub,2013-08-08 13:24:00,
2013-08-08 09:29:00,67.5,66.9,30.05,North,9,1.0,1.0,98,0.00,,,0.00,meteohub,2013-08-08 13:29:00,
2013-08-08 09:34:00,67.8,67.3,30.05,WSW,237,1.0,1.0,98,0.00,,,0.00,meteohub,2013-08-08 13:34:00,
2013-08-08 09:39:00,68.0,67.1,30.05,WNW,299,0.0,3.0,97,0.00,,,0.00,meteohub,2013-08-08 13:39:00,
2013-08-08 09:44:00,68.4,67.5,30.05,NW,321,1.0,3.0,97,0.00,,,0.00,meteohub,2013-08-08 13:44:00,
2013-08-08 09:49:00,68.7,67.8,30.05,SW,236,0.0,3.0,97,0.00,,,0.00,meteohub,2013-08-08 13:49:00,
2013-08-08 09:54:00,69.3,68.0,30.05,NNW,338,0.0,4.0,96,0.00,,,0.00,meteohub,2013-08-08 13:54:00,
2013-08-08 09:59:00,69.6,68.2,30.05,WSW,253,0.0,4.0,95,0.00,,,0.00,meteohub,2013-08-08 13:59:00,
2013-08-08 10:04:00,69.6,67.8,30.05,WNW,290,0.0,4.0,94,0.00,,,0.00,meteohub,2013-08-08 14:04:00,
2013-08-08 10:09:00,69.6,67.8,30.06,WSW,256,0.0,3.0,94,0.00,,,0.00,meteohub,2013-08-08 14:09:00,
2013-08-08 10:14:00,69.8,68.0,30.06,West,269,0.0,3.0,94,0.00,,,0.00,meteohub,2013-08-08 14:14:00,
2013-08-08 10:19:00,70.0,68.2,30.05,SSW,200,1.0,3.0,94,0.00,,,0.00,meteohub,2013-08-08 14:19:00,
2013-08-08 10:24:00,70.0,67.8,30.05,ESE,117,0.0,5.0,93,0.00,,,0.00,meteohub,2013-08-08 14:24:00,
2013-08-08 10:29:00,70.2,68.0,30.05,West,259,0.0,5.0,93,0.00,,,0.00,meteohub,2013-08-08 14:29:00,
2013-08-08 10:34:00,70.5,68.4,30.06,WNW,297,0.0,5.0,93,0.00,,,0.00,meteohub,2013-08-08 14:34:00,
2013-08-08 10:39:00,70.7,68.2,30.06,NW,306,0.0,3.0,92,0.00,,,0.00,meteohub,2013-08-08 14:39:00,
2013-08-08 10:44:00,70.5,68.0,30.06,SW,229,0.0,3.0,92,0.00,,,0.00,meteohub,2013-08-08 14:44:00,
2013-08-08 10:49:00,70.7,68.5,30.06,WNW,294,1.0,2.0,93,0.00,,,0.00,meteohub,2013-08-08 14:49:00,
2013-08-08 10:54:00,70.7,68.2,30.06,NW,305,0.0,2.0,92,0.00,,,0.00,meteohub,2013-08-08 14:54:00,
2013-08-08 10:59:00,71.4,68.9,30.06,WNW,295,1.0,3.0,92,0.00,,,0.00,meteohub,2013-08-08 14:59:00,
2013-08-08 11:04:00,72.0,68.9,30.06,WNW,302,0.0,3.0,90,0.00,,,0.00,meteohub,2013-08-08 15:04:00,
2013-08-08 11:09:00,72.5,69.1,30.06,WNW,300,1.0,4.0,89,0.00,,,0.00,meteohub,2013-08-08 15:09:00,
2013-08-08 11:14:00,72.9,69.4,30.06,West,275,0.0,4.0,89,0.00,,,0.00,meteohub,2013-08-08 15:14:00,
2013-08-08 11:19:00,73.6,69.8,30.06,WNW,287,0.0,4.0,88,0.00,,,0.00,meteohub,2013-08-08 15:19:00,
2013-08-08 11:24:00,73.8,69.3,30.06,WNW,283,0.0,3.0,86,0.00,,,0.00,meteohub,2013-08-08 15:24:00,
2013-08-08 11:29:00,73.4,68.9,30.06,NW,304,0.0,3.0,86,0.00,,,0.00,meteohub,2013-08-08 15:29:00,
2013-08-08 11:34:00,73.6,69.4,30.06,WNW,293,1.0,3.0,87,0.00,,,0.00,meteohub,2013-08-08 15:34:00,
2013-08-08 11:39:00,73.8,69.3,30.06,WNW,300,2.0,3.0,86,0.00,,,0.00,meteohub,2013-08-08 15:39:00,
2013-08-08 11:44:00,73.8,69.3,30.06,NW,323,1.0,3.0,86,0.00,,,0.00,meteohub,2013-08-08 15:44:00,
2013-08-08 11:49:00,73.9,69.8,30.06,West,269,0.0,3.0,87,0.00,,,0.00,meteohub,2013-08-08 15:49:00,
2013-08-08 11:54:00,74.1,69.6,30.06,SW,231,1.0,5.0,86,0.00,,,0.00,meteohub,2013-08-08 15:54:00,
2013-08-08 11:59:00,74.7,70.2,30.06,West,259,2.0,5.0,86,0.00,,,0.00,meteohub,2013-08-08 15:59:00,
2013-08-08 12:04:00,75.0,70.2,30.06,WNW,297,0.0,5.0,85,0.00,,,0.00,meteohub,2013-08-08 16:04:00,
2013-08-08 12:09:00,75.2,70.0,30.06,WNW,294,1.0,5.0,84,0.00,,,0.00,meteohub,2013-08-08 16:09:00,
2013-08-08 12:14:00,75.2,70.0,30.06,West,276,3.0,5.0,84,0.00,,,0.00,meteohub,2013-08-08 16:14:00,
2013-08-08 12:19:00,75.4,70.5,30.06,SW,232,0.0,5.0,85,0.00,,,0.00,meteohub,2013-08-08 16:19:00,
2013-08-08 12:24:00,75.6,70.7,30.06,NE,39,0.0,6.0,85,0.00,,,0.00,meteohub,2013-08-08 16:24:00,
2013-08-08 12:29:00,75.7,70.5,30.06,WSW,238,0.0,6.0,84,0.00,,,0.00,meteohub,2013-08-08 16:29:00,
2013-08-08 12:35:00,75.7,70.2,30.06,WSW,248,7.0,7.0,83,0.00,,,0.00,meteohub,2013-08-08 16:35:00,
2013-08-08 12:40:00,75.0,69.4,30.06,SW,221,3.0,6.0,83,0.00,,,0.00,meteohub,2013-08-08 16:40:00,
2013-08-08 12:45:00,74.5,69.6,30.06,NW,307,0.0,7.0,85,0.00,,,0.00,meteohub,2013-08-08 16:45:00,
2013-08-08 12:50:00,74.5,70.0,30.06,WNW,303,0.0,7.0,86,0.00,,,0.00,meteohub,2013-08-08 16:50:00,
2013-08-08 12:55:00,74.5,69.6,30.06,ESE,122,0.0,6.0,85,0.00,,,0.00,meteohub,2013-08-08 16:55:00,
2013-08-08 13:00:00,74.5,69.6,30.06,WSW,256,0.0,2.0,85,0.00,,,0.00,meteohub,2013-08-08 17:00:00,
2013-08-08 13:05:00,73.9,69.4,30.06,WNW,299,0.0,4.0,86,0.00,,,0.00,meteohub,2013-08-08 17:05:00,
2013-08-08 13:10:00,73.6,69.4,30.06,ESE,110,0.0,4.0,87,0.00,,,0.00,meteohub,2013-08-08 17:10:00,
2013-08-08 13:15:00,73.0,69.3,30.06,NNW,330,0.0,4.0,88,0.00,,,0.00,meteohub,2013-08-08 17:15:00,
2013-08-08 13:20:00,72.9,69.4,30.06,ESE,105,0.0,6.0,89,0.00,,,0.00,meteohub,2013-08-08 17:20:00,
2013-08-08 13:25:00,72.9,69.4,30.06,SSW,195,0.0,6.0,89,0.00,,,0.00,meteohub,2013-08-08 17:25:00,
2013-08-08 13:30:00,73.0,69.3,30.06,West,260,0.0,5.0,88,0.00,,,0.00,meteohub,2013-08-08 17:30:00,
2013-08-08 13:35:00,73.2,69.4,30.06,SSE,155,1.0,5.0,88,0.00,,,0.00,meteohub,2013-08-08 17:35:00,
2013-08-08 13:40:00,73.6,69.8,30.06,SE,129,0.0,5.0,88,0.00,,,0.00,meteohub,2013-08-08 17:40:00,
2013-08-08 13:45:00,73.9,69.8,30.06,West,281,0.0,5.0,87,0.00,,,0.00,meteohub,2013-08-08 17:45:00,
2013-08-08 13:50:00,74.1,69.6,30.06,SSE,160,2.0,5.0,86,0.00,,,0.00,meteohub,2013-08-08 17:50:00,
2013-08-08 13:55:00,74.1,69.6,30.06,WNW,291,0.0,6.0,86,0.00,,,0.00,meteohub,2013-08-08 17:55:00,
2013-08-08 14:00:00,74.1,69.6,30.05,SSW,208,0.0,6.0,86,0.00,,,0.00,meteohub,2013-08-08 18:00:00,
2013-08-08 14:05:00,74.1,70.0,30.05,NE,39,2.0,7.0,87,0.00,,,0.00,meteohub,2013-08-08 18:05:00,
2013-08-08 14:10:00,74.3,70.2,30.05,WSW,253,0.0,7.0,87,0.00,,,0.00,meteohub,2013-08-08 18:10:00,
2013-08-08 14:15:00,74.5,69.6,30.05,NW,312,0.0,7.0,85,0.00,,,0.00,meteohub,2013-08-08 18:15:00,
2013-08-08 14:20:00,73.9,69.1,30.05,NW,317,0.0,5.0,85,0.00,,,0.00,meteohub,2013-08-08 18:20:00,
2013-08-08 14:25:00,73.8,69.6,30.05,East,94,0.0,5.0,87,0.00,,,0.00,meteohub,2013-08-08 18:25:00,
2013-08-08 14:30:00,73.8,69.6,30.05,NNE,20,0.0,5.0,87,0.00,,,0.00,meteohub,2013-08-08 18:30:00,
2013-08-08 14:35:00,74.3,69.8,30.05,NW,304,1.0,6.0,86,0.00,,,0.00,meteohub,2013-08-08 18:35:00,
2013-08-08 14:40:00,74.7,70.2,30.05,NNE,17,0.0,6.0,86,0.00,,,0.00,meteohub,2013-08-08 18:40:00,
2013-08-08 14:45:00,75.4,70.2,30.05,SSW,207,4.0,5.0,84,0.00,,,0.00,meteohub,2013-08-08 18:45:00,
2013-08-08 14:50:00,75.7,69.4,30.04,WNW,297,0.0,6.0,81,0.00,,,0.00,meteohub,2013-08-08 18:50:00,
2013-08-08 14:55:00,75.6,69.6,30.04,West,281,0.0,6.0,82,0.00,,,0.00,meteohub,2013-08-08 18:55:00,
2013-08-08 15:00:00,75.2,69.6,30.04,WNW,285,0.0,6.0,83,0.00,,,0.00,meteohub,2013-08-08 19:00:00,
2013-08-08 15:05:00,75.0,69.8,30.04,WNW,298,0.0,3.0,84,0.00,,,0.00,meteohub,2013-08-08 19:05:00,
2013-08-08 15:10:00,75.0,70.2,30.04,West,278,0.0,1.0,85,0.00,,,0.00,meteohub,2013-08-08 19:10:00,
2013-08-08 15:15:00,75.2,69.6,30.04,WSW,250,0.0,4.0,83,0.00,,,0.00,meteohub,2013-08-08 19:15:00,
2013-08-08 15:20:00,75.4,69.4,30.03,SW,217,2.0,4.0,82,0.00,,,0.00,meteohub,2013-08-08 19:20:00,
2013-08-08 15:25:00,75.2,69.6,30.03,SW,214,0.0,4.0,83,0.00,,,0.00,meteohub,2013-08-08 19:25:00,
2013-08-08 15:30:00,75.2,69.6,30.03,WNW,303,0.0,3.0,83,0.00,,,0.00,meteohub,2013-08-08 19:30:00,
2013-08-08 15:35:00,75.4,69.8,30.04,NNW,338,1.0,3.0,83,0.00,,,0.00,meteohub,2013-08-08 19:35:00,
2013-08-08 15:40:00,75.4,69.8,30.04,WNW,291,1.0,1.0,83,0.00,,,0.00,meteohub,2013-08-08 19:40:00,
2013-08-08 15:45:00,75.0,69.1,30.04,West,280,0.0,3.0,82,0.00,,,0.00,meteohub,2013-08-08 19:45:00,
2013-08-08 15:50:00,75.2,70.0,30.03,SE,145,1.0,3.0,84,0.00,,,0.00,meteohub,2013-08-08 19:50:00,
2013-08-08 15:56:00,75.0,69.8,30.03,SW,222,0.0,7.0,84,0.00,,,0.00,meteohub,2013-08-08 19:56:00,
2013-08-08 16:01:00,74.8,69.6,30.03,SE,143,0.0,7.0,84,0.00,,,0.00,meteohub,2013-08-08 20:01:00,
2013-08-08 16:06:00,74.7,69.8,30.03,North,11,0.0,8.0,85,0.00,,,0.00,meteohub,2013-08-08 20:06:00,
2013-08-08 16:11:00,74.7,69.8,30.03,East,83,0.0,8.0,85,0.00,,,0.00,meteohub,2013-08-08 20:11:00,
2013-08-08 16:16:00,74.7,69.8,30.03,NNW,345,0.0,8.0,85,0.00,,,0.00,meteohub,2013-08-08 20:16:00,
2013-08-08 16:21:00,74.8,70.0,30.03,WNW,300,0.0,6.0,85,0.00,,,0.00,meteohub,2013-08-08 20:21:00,
2013-08-08 16:26:00,74.8,70.3,30.02,South,186,0.0,5.0,86,0.00,,,0.00,meteohub,2013-08-08 20:26:00,
2013-08-08 16:31:00,74.7,69.8,30.02,SE,141,0.0,4.0,85,0.00,,,0.00,meteohub,2013-08-08 20:31:00,
2013-08-08 16:36:00,74.3,69.8,30.02,NW,324,0.0,4.0,86,0.00,,,0.00,meteohub,2013-08-08 20:36:00,
2013-08-08 16:41:00,74.1,69.6,30.02,North,350,0.0,2.0,86,0.00,,,0.00,meteohub,2013-08-08 20:41:00,
2013-08-08 16:46:00,74.3,69.8,30.02,SSW,212,3.0,5.0,86,0.00,,,0.00,meteohub,2013-08-08 20:46:00,
2013-08-08 16:51:00,74.5,70.0,30.02,NW,312,2.0,5.0,86,0.00,,,0.00,meteohub,2013-08-08 20:51:00,
2013-08-08 16:56:00,74.3,69.8,30.02,SE,128,0.0,5.0,86,0.00,,,0.00,meteohub,2013-08-08 20:56:00,
2013-08-08 17:01:00,74.5,70.0,30.02,WSW,240,0.0,5.0,86,0.00,,,0.00,meteohub,2013-08-08 21:01:00,
2013-08-08 17:06:00,74.7,70.5,30.01,NW,314,0.0,5.0,87,0.00,,,0.00,meteohub,2013-08-08 21:06:00,
2013-08-08 17:11:00,75.0,70.5,30.02,WNW,295,1.0,2.0,86,0.00,,,0.00,meteohub,2013-08-08 21:11:00,
2013-08-08 17:16:00,74.8,69.6,30.01,SSE,163,1.0,2.0,84,0.00,,,0.00,meteohub,2013-08-08 21:16:00,
2013-08-08 17:21:00,74.5,69.3,30.02,WSW,241,0.0,2.0,84,0.00,,,0.00,meteohub,2013-08-08 21:21:00,
2013-08-08 17:26:00,74.1,69.3,30.02,NW,306,0.0,2.0,85,0.00,,,0.00,meteohub,2013-08-08 21:26:00,
2013-08-08 17:31:00,74.1,69.3,30.02,West,278,0.0,2.0,85,0.00,,,0.00,meteohub,2013-08-08 21:31:00,
2013-08-08 17:36:00,73.8,69.3,30.02,West,276,0.0,2.0,86,0.00,,,0.00,meteohub,2013-08-08 21:36:00,
2013-08-08 17:42:00,73.8,69.3,30.02,West,277,0.0,1.0,86,0.00,,,0.00,meteohub,2013-08-08 21:42:00,
2013-08-08 17:47:00,73.4,68.9,30.01,South,183,0.0,1.0,86,0.00,,,0.00,meteohub,2013-08-08 21:47:00,
2013-08-08 17:52:00,73.2,69.1,30.02,WNW,301,0.0,1.0,87,0.00,,,0.00,meteohub,2013-08-08 21:52:00,
2013-08-08 17:57:00,73.0,68.9,30.02,SE,136,0.0,1.0,87,0.00,,,0.00,meteohub,2013-08-08 21:57:00,
2013-08-08 18:02:00,73.0,68.9,30.02,West,276,0.0,1.0,87,0.00,,,0.00,meteohub,2013-08-08 22:02:00,
2013-08-08 18:07:00,72.9,69.1,30.02,NW,309,0.0,1.0,88,0.00,,,0.00,meteohub,2013-08-08 22:07:00,
2013-08-08 18:12:00,72.7,68.9,30.02,West,266,0.0,1.0,88,0.00,,,0.00,meteohub,2013-08-08 22:12:00,
2013-08-08 18:17:00,72.7,69.3,30.02,West,281,0.0,1.0,89,0.00,,,0.00,meteohub,2013-08-08 22:17:00,
2013-08-08 18:22:00,72.7,69.3,30.02,SE,144,0.0,1.0,89,0.00,,,0.00,meteohub,2013-08-08 22:22:00,
2013-08-08 18:27:00,72.7,69.6,30.02,SSW,197,0.0,1.0,90,0.00,,,0.00,meteohub,2013-08-08 22:27:00,
2013-08-08 18:32:00,72.7,69.6,30.02,NW,307,0.0,1.0,90,0.00,,,0.00,meteohub,2013-08-08 22:32:00,
2013-08-08 18:37:00,72.5,69.4,30.03,SW,222,0.0,2.0,90,0.00,,,0.00,meteohub,2013-08-08 22:37:00,
2013-08-08 18:42:00,72.5,69.4,30.02,WSW,245,0.0,2.0,90,0.00,,,0.00,meteohub,2013-08-08 22:42:00,
2013-08-08 18:47:00,72.3,69.3,30.02,West,266,0.0,2.0,90,0.00,,,0.00,meteohub,2013-08-08 22:47:00,
2013-08-08 18:52:00,72.3,69.3,30.02,NNE,23,0.0,1.0,90,0.00,,,0.00,meteohub,2013-08-08 22:52:00,
2013-08-08 18:57:00,72.3,69.6,30.02,SSW,195,0.0,1.0,91,0.00,,,0.00,meteohub,2013-08-08 22:57:00,
2013-08-08 19:02:00,72.1,69.4,30.02,SSW,207,0.0,1.0,91,0.00,,,0.00,meteohub,2013-08-08 23:02:00,
2013-08-08 19:08:00,72.0,69.3,30.02,West,262,0.0,2.0,91,0.00,,,0.00,meteohub,2013-08-08 23:08:00,
2013-08-08 19:13:00,72.0,69.4,30.02,West,277,0.0,2.0,92,0.00,,,0.00,meteohub,2013-08-08 23:13:00,
2013-08-08 19:18:00,72.0,69.4,30.02,WSW,256,0.0,2.0,92,0.00,,,0.00,meteohub,2013-08-08 23:18:00,
2013-08-08 19:23:00,72.0,69.4,30.02,SSE,148,0.0,1.0,92,0.00,,,0.00,meteohub,2013-08-08 23:23:00,
2013-08-08 19:28:00,72.0,69.4,30.03,WSW,257,0.0,1.0,92,0.00,,,0.00,meteohub,2013-08-08 23:28:00,
2013-08-08 19:33:00,72.0,69.4,30.03,SE,136,0.0,1.0,92,0.00,,,0.00,meteohub,2013-08-08 23:33:00,
2013-08-08 19:38:00,72.0,69.4,30.03,WSW,245,0.0,1.0,92,0.00,,,0.00,meteohub,2013-08-08 23:38:00,
2013-08-08 19:43:00,71.8,69.3,30.03,SW,223,1.0,1.0,92,0.00,,,0.00,meteohub,2013-08-08 23:43:00,
2013-08-08 19:49:00,71.6,69.1,30.03,SE,136,0.0,1.0,92,0.00,,,0.00,meteohub,2013-08-08 23:49:00,
2013-08-08 19:54:00,71.4,68.9,30.03,West,269,0.0,1.0,92,0.00,,,0.00,meteohub,2013-08-08 23:54:00,
2013-08-08 19:59:00,71.2,69.1,30.03,WNW,290,0.0,1.0,93,0.00,,,0.00,meteohub,2013-08-08 23:59:00,
2013-08-08 20:05:00,71.2,69.1,30.03,WNW,291,0.0,1.0,93,0.00,,,0.00,meteohub,2013-08-09 00:05:00,
2013-08-08 20:10:00,71.1,68.9,30.03,WNW,291,0.0,1.0,93,0.00,,,0.00,meteohub,2013-08-09 00:10:00,
2013-08-08 20:15:00,71.1,68.9,30.03,ESE,120,0.0,0.0,93,0.00,,,0.00,meteohub,2013-08-09 00:15:00,
2013-08-08 20:21:00,70.9,68.7,30.03,WSW,243,0.0,1.0,93,0.00,,,0.00,meteohub,2013-08-09 00:21:00,
2013-08-08 20:26:00,70.9,69.1,30.03,SW,228,0.0,3.0,94,0.00,,,0.00,meteohub,2013-08-09 00:26:00,
2013-08-08 20:31:00,70.7,68.9,30.03,SSW,209,0.0,3.0,94,0.00,,,0.00,meteohub,2013-08-09 00:31:00,
2013-08-08 20:36:00,70.5,68.7,30.03,SSW,204,0.0,3.0,94,0.00,,,0.00,meteohub,2013-08-09 00:36:00,
2013-08-08 20:41:00,70.5,68.7,30.03,SW,233,0.0,3.0,94,0.00,,,0.00,meteohub,2013-08-09 00:41:00,
2013-08-08 20:46:00,70.5,69.1,30.04,North,356,0.0,1.0,95,0.00,,,0.00,meteohub,2013-08-09 00:46:00,
2013-08-08 20:51:00,70.3,68.9,30.04,NW,321,0.0,1.0,95,0.00,,,0.00,meteohub,2013-08-09 00:51:00,
2013-08-08 20:56:00,70.3,68.9,30.03,NW,322,0.0,0.0,95,0.00,,,0.00,meteohub,2013-08-09 00:56:00,
2013-08-08 21:01:00,70.2,68.7,30.03,WNW,289,0.0,0.0,95,0.00,,,0.00,meteohub,2013-08-09 01:01:00,
2013-08-08 21:06:00,70.2,68.7,30.04,SW,222,0.0,1.0,95,0.00,,,0.00,meteohub,2013-08-09 01:06:00,
2013-08-08 21:11:00,70.2,68.7,30.04,WSW,240,0.0,1.0,95,0.00,,,0.00,meteohub,2013-08-09 01:11:00,
2013-08-08 21:17:00,70.2,68.7,30.04,WNW,285,1.0,1.0,95,0.00,,,0.00,meteohub,2013-08-09 01:17:00,
2013-08-08 21:22:00,70.0,68.7,30.04,SE,145,0.0,1.0,96,0.00,,,0.00,meteohub,2013-08-09 01:22:00,
2013-08-08 21:27:00,70.0,68.7,30.04,SE,144,0.0,1.0,96,0.00,,,0.00,meteohub,2013-08-09 01:27:00,
2013-08-08 21:32:00,69.8,68.5,30.04,SE,145,0.0,1.0,96,0.00,,,0.00,meteohub,2013-08-09 01:32:00,
2013-08-08 21:37:00,69.6,68.4,30.04,WSW,246,0.0,2.0,96,0.00,,,0.00,meteohub,2013-08-09 01:37:00,
2013-08-08 21:42:00,69.4,68.2,30.04,West,270,0.0,3.0,96,0.00,,,0.00,meteohub,2013-08-09 01:42:00,
2013-08-08 21:47:00,69.4,68.0,30.04,WNW,284,0.0,3.0,95,0.00,,,0.00,meteohub,2013-08-09 01:47:00,
2013-08-08 21:52:00,69.3,67.8,30.05,SSW,195,0.0,3.0,95,0.00,,,0.00,meteohub,2013-08-09 01:52:00,
2013-08-08 21:57:00,69.3,67.8,30.04,WSW,257,0.0,2.0,95,0.00,,,0.00,meteohub,2013-08-09 01:57:00,
2013-08-08 22:02:00,69.1,67.6,30.04,WSW,240,0.0,1.0,95,0.00,,,0.00,meteohub,2013-08-09 02:02:00,
2013-08-08 22:07:00,69.1,67.3,30.04,SSW,193,1.0,1.0,94,0.00,,,0.00,meteohub,2013-08-09 02:07:00,
2013-08-08 22:12:00,69.1,67.3,30.04,WNW,288,0.0,3.0,94,0.00,,,0.00,meteohub,2013-08-09 02:12:00,
2013-08-08 22:17:00,69.1,67.3,30.04,WSW,246,0.0,3.0,94,0.00,,,0.00,meteohub,2013-08-09 02:17:00,
2013-08-08 22:22:00,69.1,67.3,30.04,NW,305,0.0,3.0,94,0.00,,,0.00,meteohub,2013-08-09 02:22:00,
2013-08-08 22:27:00,69.1,67.3,30.03,NW,304,0.0,5.0,94,0.00,,,0.00,meteohub,2013-08-09 02:27:00,
2013-08-08 22:33:00,69.1,67.3,30.03,WSW,245,4.0,5.0,94,0.00,,,0.00,meteohub,2013-08-09 02:33:00,
2013-08-08 22:38:00,69.1,67.3,30.02,WNW,291,0.0,5.0,94,0.00,,,0.00,meteohub,2013-08-09 02:38:00,
2013-08-08 22:43:00,69.1,67.3,30.02,WSW,248,0.0,4.0,94,0.00,,,0.00,meteohub,2013-08-09 02:43:00,
2013-08-08 22:48:00,69.1,67.3,30.02,South,191,1.0,4.0,94,0.00,,,0.00,meteohub,2013-08-09 02:48:00,
2013-08-08 22:54:00,69.1,67.3,30.02,NE,56,0.0,3.0,94,0.00,,,0.00,meteohub,2013-08-09 02:54:00,
2013-08-08 22:59:00,69.1,66.9,30.02,ENE,65,0.0,3.0,93,0.00,,,0.00,meteohub,2013-08-09 02:59:00,
2013-08-08 23:04:00,68.9,66.7,30.02,North,359,0.0,3.0,93,0.00,,,0.00,meteohub,2013-08-09 03:04:00,
2013-08-08 23:09:00,68.9,66.7,30.02,SSE,148,0.0,1.0,93,0.00,,,0.00,meteohub,2013-08-09 03:09:00,
2013-08-08 23:15:00,68.7,66.6,30.03,SSE,148,0.0,1.0,93,0.00,,,0.00,meteohub,2013-08-09 03:15:00,
2013-08-08 23:20:00,68.7,66.6,30.02,SSE,148,0.0,1.0,93,0.00,,,0.00,meteohub,2013-08-09 03:20:00,
2013-08-08 23:25:00,68.5,66.7,30.02,SSE,149,0.0,0.0,94,0.00,,,0.00,meteohub,2013-08-09 03:25:00,
2013-08-08 23:30:00,68.5,66.7,30.03,SSE,151,0.0,0.0,94,0.00,,,0.00,meteohub,2013-08-09 03:30:00,
2013-08-08 23:35:00,68.4,66.6,30.03,SSE,149,0.0,0.0,94,0.00,,,0.00,meteohub,2013-08-09 03:35:00,
2013-08-08 23:40:00,68.4,66.6,30.03,East,84,0.0,0.0,94,0.00,,,0.00,meteohub,2013-08-09 03:40:00,
2013-08-08 23:45:00,68.5,67.1,30.03,WSW,248,0.0,1.0,95,0.00,,,0.00,meteohub,2013-08-09 03:45:00,
2013-08-08 23:51:00,68.5,67.1,30.03,WSW,239,0.0,1.0,95,0.00,,,0.00,meteohub,2013-08-09 03:51:00,
2013-08-08 23:56:00,68.7,67.3,30.03,WNW,296,0.0,1.0,95,0.00,,,0.00,meteohub,2013-08-09 03:56:00,